Date,TemperatureHighF,TemperatureAvgF,TemperatureLowF,DewpointHighF,DewpointAvgF,DewpointLowF,HumidityHigh,HumidityAvg,HumidityLow,PressureMaxIn,PressureMinIn,WindSpeedMaxMPH,WindSpeedAvgMPH,GustSpeedMaxMPH,PrecipitationSumIn
2013-1-1,14,7,-1,6,0,-6,79,72,59,30.17,30.09,3,0,10,0.00
2013-1-2,27,18,5,20,10,-1,81,70,55,30.11,29.97,5,1,13,0.00
2013-1-3,25,21,11,22,16,5,86,81,76,30.19,29.98,5,3,15,0.00
2013-1-4,30,20,9,20,13,4,83,75,65,30.15,30.04,9,3,23,0.00
2013-1-5,34,26,10,32,22,6,93,86,73,30.12,29.79,4,2,16,0.08
2013-1-6,34,23,11,32,18,7,91,79,72,30.23,29.78,5,3,17,0.01
2013-1-7,38,26,7,26,19,3,87,74,54,30.21,29.96,8,3,23,0.01
2013-1-8,39,34,22,31,27,19,90,78,69,30.02,29.86,10,3,18,0.04
2013-1-9,40,33,21,31,26,17,89,75,62,30.38,29.86,11,4,26,0.00
2013-1-10,42,30,17,36,25,14,96,83,56,30.40,29.75,6,2,15,0.47
2013-1-11,52,44,37,48,35,-100,99,92,84,29.74,29.51,11,4,22,0.07
2013-1-12,52,36,23,47,13,-100,87,68,70,29.92,29.51,10,5,24,0.00
2013-1-13,22,17,11,19,10,3,88,74,65,30.16,29.82,7,3,21,0.00
2013-1-14,22,13,4,8,4,-1,81,70,53,30.39,30.17,3,1,11,0.00
2013-1-15,28,16,4,14,8,-1,85,71,48,30.35,30.02,3,0,12,0.01
2013-1-16,35,26,13,31,19,8,87,73,60,30.02,29.71,8,3,21,0.00
2013-1-17,32,21,13,25,10,5,79,63,45,30.31,29.98,5,1,13,0.00
2013-1-18,43,31,13,32,24,7,85,73,63,30.33,29.75,10,4,27,0.03
2013-1-19,46,38,18,35,29,5,81,70,44,29.89,29.57,15,6,38,0.00
2013-1-20,18,13,8,5,0,-2,68,57,45,30.24,29.90,9,4,27,0.00
2013-1-21,10,5,0,2,-7,-11,71,59,45,30.23,30.07,9,5,23,0.00
2013-1-22,9,3,-4,-5,-9,-13,66,58,48,30.33,30.22,6,3,17,0.00
2013-1-23,19,13,7,13,3,-5,76,64,53,30.32,30.02,10,3,20,0.00
2013-1-24,19,10,2,8,-2,-8,66,57,44,30.58,30.27,7,2,14,0.00
2013-1-25,28,21,15,17,12,2,85,70,48,30.25,29.85,8,4,21,0.00
2013-1-26,26,18,6,13,7,0,78,63,45,30.31,30.12,4,1,10,0.00
2013-1-27,36,29,22,34,23,12,96,78,62,30.25,29.74,9,5,18,0.04
2013-1-28,43,39,36,42,37,33,98,94,84,29.83,29.64,4,1,13,0.11
2013-1-29,59,47,35,57,-4,-100,99,65,94,29.64,29.34,7,2,22,0.79
2013-1-30,35,28,16,34,27,12,97,93,82,29.55,29.19,8,3,23,0.23
2013-1-31,16,8,0,12,2,-7,82,74,69,30.11,29.56,9,6,24,0.00
2013-2-1,9,0,-6,4,-8,-14,82,68,58,30.30,30.07,8,3,18,0.00
2013-2-2,18,10,2,14,4,-4,88,78,68,30.06,29.93,4,1,10,0.00
2013-2-3,19,14,6,14,8,1,86,76,64,29.97,29.88,8,2,20,0.00
2013-2-4,20,14,-1,15,9,-6,88,80,69,29.93,29.80,4,1,14,0.00
2013-2-5,29,18,-2,24,14,-7,90,82,73,30.00,29.72,5,1,15,0.00
2013-2-6,35,23,1,31,17,-4,85,78,66,30.14,29.95,6,2,14,0.05
2013-2-7,35,32,23,33,30,22,95,92,83,29.97,29.79,4,1,11,0.30
2013-2-8,24,19,2,21,15,-3,94,84,75,30.33,29.96,3,0,11,0.00
2013-2-9,29,23,6,25,19,2,90,85,79,30.32,29.97,9,3,18,0.00
2013-2-10,44,35,20,43,33,17,98,93,76,29.97,29.31,12,6,26,0.33
2013-2-11,39,30,25,32,24,19,84,76,70,29.93,29.35,15,9,34,0.01
2013-2-12,30,24,19,21,18,15,88,76,67,30.01,29.80,6,3,18,0.00
2013-2-13,39,28,13,31,23,10,92,82,67,29.80,29.58,6,1,17,0.01
2013-2-14,37,35,29,32,28,22,89,76,59,29.89,29.48,8,4,21,0.00
2013-2-15,29,22,14,24,11,4,82,63,48,30.12,29.89,5,3,15,0.00
2013-2-16,18,12,4,6,2,-2,78,65,52,30.13,30.07,5,2,13,0.00
2013-2-17,28,17,1,20,8,-4,84,68,52,30.15,29.82,8,3,20,0.00
2013-2-18,49,35,21,40,29,18,94,78,65,29.82,29.35,9,5,20,0.41
2013-2-19,20,11,6,17,6,-1,88,78,71,30.15,29.49,8,5,24,0.00
2013-2-20,20,11,4,10,4,-3,82,71,64,30.32,30.15,3,2,14,0.00
2013-2-21,27,19,8,23,14,4,89,81,75,30.33,29.88,4,1,21,0.00
2013-2-22,30,26,24,27,24,22,93,90,87,29.88,29.69,4,2,16,0.02
2013-2-23,27,23,18,23,17,13,87,77,68,29.88,29.78,9,4,17,0.01
2013-2-24,35,22,6,21,14,3,86,73,56,30.06,29.88,1,0,7,0.14
2013-2-25,41,27,11,27,20,8,89,75,57,30.08,29.88,2,0,7,0.01
2013-2-26,35,32,30,30,27,24,94,82,67,29.87,29.50,6,3,24,0.00
2013-2-27,32,30,28,31,29,27,98,94,92,29.65,29.49,6,4,15,0.10
2013-2-28,34,31,24,30,26,17,92,82,71,30.03,29.68,5,3,15,0.09
2013-3-1,24,22,14,19,16,8,84,78,70,30.17,30.01,5,3,14,0.00
2013-3-2,26,16,4,14,8,-2,79,69,55,30.17,30.10,5,2,13,0.00
2013-3-3,30,15,0,12,5,-5,83,66,42,30.10,30.01,1,0,5,0.02
2013-3-4,31,23,10,25,16,3,83,75,62,30.04,29.91,6,2,20,0.01
2013-3-5,32,29,24,30,26,22,93,88,75,29.99,29.75,2,0,13,0.12
2013-3-6,32,28,24,26,23,21,90,82,75,30.23,29.99,4,1,13,0.12
2013-3-7,34,27,12,22,19,8,84,73,62,30.33,30.21,3,0,12,0.24
2013-3-8,36,24,6,26,18,2,89,77,65,30.38,30.17,9,2,16,0.01
2013-3-9,39,35,30,36,30,23,89,81,72,30.17,29.69,10,4,18,0.09
2013-3-10,42,39,35,41,38,34,98,96,89,29.70,29.49,6,0,12,0.58
2013-3-11,37,33,31,36,32,28,98,96,89,29.68,29.47,6,2,18,0.05
2013-3-12,34,28,24,28,23,18,92,80,69,29.94,29.68,8,5,23,0.01
2013-3-13,32,25,19,19,13,7,84,62,35,30.24,29.93,7,4,16,0.01
2013-3-14,34,26,15,28,20,10,91,80,63,30.23,29.98,6,1,12,0.00
2013-3-15,35,30,23,33,28,20,94,92,88,29.98,29.68,2,0,12,0.13
2013-3-16,31,28,24,29,23,19,93,81,68,30.04,29.66,5,2,15,0.00
2013-3-17,33,27,19,21,17,11,79,67,59,30.14,29.89,5,2,15,0.00
2013-3-18,33,28,18,30,23,9,91,83,66,29.88,29.51,13,4,33,0.10
2013-3-19,28,19,12,12,9,5,76,64,50,30.01,29.69,12,8,30,0.00
2013-3-20,21,15,8,8,4,-2,73,60,52,30.04,29.96,9,5,21,0.00
2013-3-21,28,18,9,14,7,0,75,63,49,30.00,29.94,4,1,13,0.00
2013-3-22,35,22,8,17,12,4,84,66,44,30.00,29.93,2,0,10,0.00
2013-3-23,40,29,17,25,19,13,87,67,42,30.05,29.95,1,0,9,0.00
2013-3-24,36,31,28,28,26,22,92,81,68,29.95,29.65,6,2,18,0.02
2013-3-25,34,30,26,26,23,19,80,73,66,30.00,29.70,8,4,16,0.01
2013-3-26,40,35,30,27,24,22,76,66,52,30.16,30.00,4,1,11,0.00
2013-3-27,41,33,25,27,22,18,84,67,43,30.23,30.16,2,0,7,0.00
2013-3-28,46,36,22,27,23,18,89,61,39,30.26,30.18,1,0,7,0.00
2013-3-29,52,40,28,32,26,24,87,61,36,30.22,30.12,2,0,10,0.00
2013-3-30,55,43,30,41,33,23,89,67,51,30.12,29.71,10,2,18,0.00
2013-3-31,52,42,33,42,34,20,93,75,57,29.81,29.62,9,4,23,0.00
2013-4-1,38,32,27,20,16,12,66,52,37,30.11,29.82,7,3,19,0.00
2013-4-2,41,32,22,18,16,11,76,53,30,30.22,30.11,7,2,22,0.00
2013-4-3,45,34,19,22,15,10,83,51,24,30.34,30.19,2,0,11,0.00
2013-4-4,58,43,28,37,26,17,69,53,35,30.19,29.85,8,3,20,0.00
2013-4-5,51,41,30,31,26,22,82,57,35,30.13,29.93,7,1,19,0.00
2013-4-6,67,49,36,50,34,22,89,59,33,30.01,29.45,13,6,26,0.18
2013-4-7,59,48,38,47,37,33,85,69,46,29.83,29.49,8,3,22,0.00
2013-4-8,64,49,38,53,44,33,96,82,65,29.85,29.42,7,2,15,0.74
2013-4-9,46,42,39,45,40,37,98,95,88,29.87,29.72,4,1,17,1.51
2013-4-10,40,37,34,38,36,32,96,94,92,29.94,29.75,6,2,18,1.09
2013-4-11,42,39,36,41,38,35,97,96,93,29.78,29.45,5,2,30,0.29
2013-4-12,42,37,35,38,33,28,97,86,72,29.72,29.44,8,4,21,0.01
2013-4-13,41,36,32,30,27,26,85,72,58,29.88,29.72,9,5,22,0.00
2013-4-14,62,44,33,50,36,27,87,73,56,29.89,29.43,11,4,24,0.02
2013-4-15,63,51,40,52,45,36,97,82,44,29.87,29.43,13,3,24,0.87
2013-4-16,57,45,33,38,34,30,93,69,38,30.17,29.85,4,1,12,0.00
2013-4-17,43,41,39,42,37,31,97,86,68,30.18,29.69,10,2,23,1.05
2013-4-18,61,49,37,60,48,32,99,95,81,29.74,29.25,12,4,31,1.42
2013-4-19,39,36,33,32,28,23,84,72,58,29.82,29.31,12,9,31,0.02
2013-4-20,46,36,28,25,20,16,78,56,33,30.29,29.83,5,1,16,0.00
2013-4-21,54,43,31,36,29,23,78,60,44,30.39,30.16,10,6,21,0.00
2013-4-22,66,54,42,43,38,33,73,55,38,30.16,29.89,9,5,19,0.00
2013-4-23,57,44,37,48,39,31,93,85,53,29.89,29.78,5,2,14,0.61
2013-4-24,52,43,34,31,28,24,78,57,34,29.95,29.87,7,3,19,0.00
2013-4-25,51,43,36,36,32,27,85,65,42,30.19,29.90,8,4,22,0.02
2013-4-26,68,53,32,48,38,27,87,59,41,30.19,30.06,11,5,26,0.00
2013-4-27,64,56,46,48,45,43,90,68,48,30.13,29.88,5,1,15,0.00
2013-4-28,69,58,49,52,47,43,81,68,50,29.87,29.67,1,0,10,0.00
2013-4-29,73,62,50,58,53,47,92,73,53,29.75,29.57,12,3,20,0.05
2013-4-30,86,72,60,61,54,47,89,58,26,29.75,29.57,11,6,25,0.00
2013-5-1,83,72,60,57,52,46,72,52,27,30.02,29.75,7,2,16,0.00
2013-5-2,59,49,41,48,41,37,90,75,60,30.15,30.03,6,3,17,0.19
2013-5-3,49,43,38,48,42,35,96,94,89,30.09,29.85,4,1,16,0.27
2013-5-4,71,58,48,56,50,46,95,76,48,29.92,29.83,4,0,15,0.04
2013-5-5,75,60,46,52,46,42,92,63,32,29.92,29.85,4,0,15,0.00
2013-5-6,76,62,46,49,43,37,87,55,26,29.93,29.85,1,0,11,0.00
2013-5-7,81,66,53,51,43,34,86,50,19,29.93,29.84,2,0,10,0.00
2013-5-8,80,64,47,52,47,41,93,59,26,29.91,29.82,1,0,9,0.00
2013-5-9,69,60,48,60,55,46,96,82,62,29.83,29.71,3,0,16,0.85
2013-5-10,50,47,44,46,44,42,96,90,83,29.87,29.70,3,1,11,0.18
2013-5-11,57,48,41,50,38,26,96,69,38,29.94,29.71,9,2,22,0.01
2013-5-12,56,45,37,31,27,22,75,51,28,30.02,29.94,5,2,17,0.00
2013-5-13,64,50,30,44,32,26,91,56,24,30.05,29.80,3,0,14,0.00
2013-5-14,90,72,51,61,49,38,68,46,23,29.80,29.45,5,1,22,0.00
2013-5-15,81,72,58,59,49,42,70,45,26,29.72,29.45,6,1,15,0.00
2013-5-16,84,67,48,56,47,40,93,55,23,29.81,29.71,2,0,14,0.00
2013-5-17,70,63,58,53,47,40,69,57,50,29.92,29.81,3,1,15,0.00
2013-5-18,80,67,52,64,57,46,88,71,54,29.91,29.78,2,0,11,0.00
2013-5-19,86,72,59,66,62,57,95,73,42,29.80,29.55,7,1,23,0.18
2013-5-20,82,73,62,65,60,56,95,68,43,29.60,29.44,13,2,24,0.07
2013-5-21,78,69,60,64,59,55,94,73,47,29.55,29.47,7,1,22,0.01
2013-5-22,73,64,57,63,57,52,96,80,50,29.61,29.48,5,1,18,0.02
2013-5-23,64,55,44,56,46,38,93,75,47,30.19,29.61,2,0,16,0.01
2013-5-24,66,51,34,44,36,31,92,61,31,30.33,30.17,1,0,13,0.00
2013-5-25,57,51,45,42,39,36,82,64,46,30.27,30.17,2,0,14,0.00
2013-5-26,66,54,42,54,44,34,89,71,48,30.17,30.01,2,0,15,0.08
2013-5-27,58,55,51,56,53,47,96,92,85,30.01,29.74,2,1,12,0.02
2013-5-28,77,64,53,71,62,52,99,94,82,29.74,29.55,3,0,10,0.20
2013-5-29,81,72,62,70,66,61,98,82,62,29.78,29.62,2,0,13,0.00
2013-5-30,82,74,63,70,66,61,96,77,57,29.73,29.56,6,2,23,0.34
2013-5-31,74,67,62,66,63,60,97,86,64,29.67,29.54,6,1,22,0.02
2013-6-1,77,69,64,68,63,56,97,81,56,29.57,29.49,6,1,17,0.00
2013-6-2,64,56,45,57,48,42,90,74,58,29.91,29.57,2,0,13,0.00
2013-6-3,70,56,42,51,46,41,97,70,42,29.99,29.88,2,0,10,0.00
2013-6-4,69,60,50,54,48,43,96,67,42,30.04,29.92,1,0,11,0.02
2013-6-5,65,58,53,58,53,44,93,85,63,30.01,29.83,1,0,10,0.16
2013-6-6,60,56,53,56,53,50,97,90,78,29.84,29.76,1,0,7,0.03
2013-6-7,73,61,51,55,50,42,90,70,34,29.86,29.78,1,0,11,0.00
2013-6-8,74,61,44,55,48,42,96,66,38,29.86,29.81,1,0,7,0.00
2013-6-9,79,68,57,63,56,45,93,67,48,29.86,29.64,4,1,16,0.06
2013-6-10,81,69,58,68,62,57,98,79,50,29.73,29.62,3,0,15,0.04
2013-6-11,84,72,57,66,62,55,97,75,51,29.78,29.66,1,0,10,0.00
2013-6-12,86,72,64,70,66,63,95,81,59,29.78,29.48,5,0,17,0.13
2013-6-13,81,70,60,64,58,54,96,69,42,29.92,29.56,2,0,11,0.01
2013-6-14,77,66,52,62,55,49,91,70,50,30.02,29.86,1,0,10,0.00
2013-6-15,81,68,58,70,62,52,96,81,63,29.91,29.69,3,0,14,0.11
2013-6-16,86,75,62,70,59,49,90,62,29,29.79,29.72,8,1,24,0.01
2013-6-17,89,73,56,60,55,50,94,60,28,29.80,29.71,6,1,16,0.00
2013-6-18,75,65,55,59,53,46,82,67,50,29.96,29.81,1,0,13,0.00
2013-6-19,80,65,46,59,50,42,90,62,40,30.01,29.92,1,0,10,0.00
2013-6-20,86,71,52,64,57,47,89,63,41,30.00,29.89,1,0,9,0.00
2013-6-21,75,70,66,67,65,61,97,83,69,29.99,29.66,7,0,23,0.76
2013-6-22,81,72,66,75,69,64,98,90,76,29.98,29.77,5,0,17,2.43
2013-6-23,84,73,63,73,67,62,98,83,66,29.91,29.74,1,0,12,0.02
2013-6-24,80,71,66,72,67,65,97,88,68,29.91,29.69,5,0,17,0.80
2013-6-25,80,72,64,75,69,64,99,93,79,29.81,29.64,2,0,16,1.70
2013-6-26,84,73,68,72,69,65,97,86,63,29.66,29.57,5,1,18,0.03
2013-6-27,87,77,67,73,67,60,98,74,44,29.66,29.55,6,1,19,0.00
2013-6-28,78,71,65,66,62,59,97,75,53,29.59,29.49,5,1,17,0.30
2013-6-29,75,66,62,67,63,57,99,91,66,29.69,29.48,1,0,15,0.68
2013-6-30,80,68,57,63,58,52,95,72,48,29.90,29.69,2,0,11,0.01
2013-7-1,80,67,55,57,52,47,87,61,33,29.97,29.89,2,0,19,0.00
2013-7-2,77,65,54,59,52,40,94,67,29,29.98,29.92,1,0,13,0.00
2013-7-3,72,63,53,63,58,51,95,83,70,29.95,29.89,0,0,4,0.00
2013-7-4,82,70,55,66,60,54,98,74,41,29.95,29.87,1,0,7,0.00
2013-7-5,83,73,59,66,62,57,96,72,51,29.94,29.86,1,0,11,0.00
2013-7-6,84,74,60,68,64,58,97,74,51,29.91,29.81,1,0,9,0.00
2013-7-7,88,78,66,71,68,64,97,75,47,29.84,29.77,1,0,13,0.00
2013-7-8,88,79,70,76,72,69,96,80,66,29.82,29.77,5,1,19,0.29
2013-7-9,84,78,70,76,73,68,98,85,68,29.84,29.69,6,1,20,0.00
2013-7-10,80,75,62,75,65,57,95,74,47,29.88,29.70,2,0,13,0.00
2013-7-11,83,69,56,65,57,51,98,70,35,29.99,29.89,1,0,9,0.00
2013-7-12,84,69,53,64,56,48,97,68,29,30.03,29.93,1,0,6,0.00
2013-7-13,84,70,54,66,58,52,98,70,44,30.02,29.95,1,0,11,0.00
2013-7-14,87,75,60,70,65,58,96,73,51,30.07,30.01,1,0,10,0.00
2013-7-15,90,79,66,75,70,64,96,77,55,30.12,30.05,1,0,7,0.00
2013-7-16,91,81,71,76,73,70,98,79,56,30.14,30.08,3,0,14,0.00
2013-7-17,92,82,71,76,74,69,97,76,55,30.15,30.01,2,0,16,0.00
2013-7-18,91,82,71,76,73,69,97,75,55,30.03,29.77,5,1,19,0.00
2013-7-19,90,82,74,75,71,66,86,70,54,29.77,29.60,9,2,26,0.01
2013-7-20,86,75,62,67,63,60,95,70,45,29.81,29.68,2,0,11,0.00
2013-7-21,83,70,61,70,64,59,94,81,59,29.82,29.72,1,0,15,0.11
2013-7-22,85,73,59,71,65,58,98,80,57,29.75,29.57,6,0,37,0.61
2013-7-23,78,68,57,66,59,54,98,76,47,29.86,29.57,2,0,11,0.00
2013-7-24,75,63,52,61,54,50,98,74,45,29.95,29.86,1,0,11,0.00
2013-7-25,78,67,51,63,58,50,97,75,53,29.96,29.83,4,0,13,0.00
2013-7-26,72,66,60,71,63,56,98,89,69,29.84,29.71,2,0,15,1.08
2013-7-27,63,58,54,56,50,46,92,75,58,29.83,29.77,3,1,20,0.00
2013-7-28,68,59,54,54,51,48,88,75,57,29.91,29.75,3,1,16,0.00
2013-7-29,77,64,51,61,56,49,95,77,54,30.03,29.90,1,0,10,0.00
2013-7-30,71,63,55,64,60,54,98,91,74,30.04,29.95,1,0,9,0.05
2013-7-31,78,68,60,68,64,58,98,88,66,29.94,29.81,2,0,12,0.02
2013-8-1,80,68,58,62,59,54,97,75,45,29.88,29.79,2,0,12,0.06
2013-8-2,81,70,60,68,62,59,96,77,54,29.82,29.72,2,0,13,0.07
2013-8-3,79,68,55,60,56,50,95,70,41,30.00,29.83,1,0,10,0.00
2013-8-4,77,66,52,61,56,50,96,75,40,30.08,29.98,1,0,9,0.00
2013-8-5,72,63,55,65,60,54,97,90,67,29.98,29.73,1,0,13,0.05
2013-8-6,82,73,66,72,69,65,98,88,71,29.76,29.65,3,0,13,0.09
2013-8-7,84,75,62,72,68,60,98,81,54,29.83,29.62,2,0,11,0.01
2013-8-8,80,68,58,65,61,57,98,80,53,29.91,29.82,1,0,12,0.00
2013-8-9,81,68,54,66,60,53,97,79,59,29.93,29.84,3,0,15,0.00
2013-8-10,78,66,54,63,57,52,97,75,43,30.01,29.93,1,0,9,0.00
2013-8-11,79,65,52,68,60,51,98,85,63,30.01,29.88,3,0,13,0.00
2013-8-12,84,72,62,69,65,58,96,80,55,29.89,29.75,1,0,13,0.00
2013-8-13,72,63,52,58,51,46,89,69,43,30.03,29.83,1,0,14,0.00
2013-8-14,75,60,46,58,51,45,97,74,48,30.10,30.01,1,0,9,0.00
2013-8-15,78,65,54,58,55,52,94,73,43,30.03,29.95,1,0,9,0.00
2013-8-16,83,67,52,62,55,50,97,69,35,30.06,29.99,1,0,9,0.00
2013-8-17,80,66,50,63,55,49,98,71,41,30.12,30.03,1,0,9,0.00
2013-8-18,81,66,50,63,56,48,98,72,43,30.09,29.97,1,0,11,0.00
2013-8-19,82,68,53,65,60,51,98,77,52,29.99,29.89,4,0,15,0.00
2013-8-20,85,72,59,68,63,57,98,76,47,29.96,29.87,3,0,17,0.00
2013-8-21,87,78,68,70,67,64,87,71,54,29.91,29.79,3,0,16,0.00
2013-8-22,76,70,63,70,67,61,98,89,73,29.99,29.82,7,0,26,0.78
2013-8-23,82,69,56,66,58,55,98,74,43,30.05,29.98,2,0,11,0.00
2013-8-24,83,69,53,68,61,52,97,78,54,30.12,30.03,0,0,9,0.00
2013-8-25,88,77,67,70,65,60,86,68,48,30.08,29.97,4,0,17,0.00
2013-8-26,90,79,69,75,69,64,86,74,58,29.98,29.83,3,0,16,0.00
2013-8-27,92,82,73,75,72,69,88,73,54,29.83,29.67,4,1,21,0.00
2013-8-28,87,78,69,74,71,66,94,80,60,29.91,29.68,1,0,11,0.00
2013-8-29,86,73,62,73,66,61,98,82,52,29.96,29.83,1,0,7,0.00
2013-8-30,94,76,66,76,71,65,98,84,53,29.83,29.59,5,1,18,0.07
2013-8-31,77,71,64,69,67,63,97,87,75,29.76,29.66,1,0,12,0.05
2013-9-1,86,70,60,72,65,59,98,86,58,29.70,29.57,3,0,15,0.03
2013-9-2,73,64,54,63,58,52,97,81,56,29.88,29.70,1,0,10,0.00
2013-9-3,76,61,47,59,53,46,98,78,47,29.98,29.88,2,0,11,0.01
2013-9-4,84,66,47,65,57,46,98,77,47,30.00,29.92,2,0,13,0.00
2013-9-5,76,68,56,65,58,50,97,74,52,30.12,29.97,2,0,13,0.00
2013-9-6,85,70,54,66,60,49,90,72,51,30.09,29.84,2,0,15,0.00
2013-9-7,89,76,66,71,66,62,92,73,50,29.84,29.72,4,0,17,0.01
2013-9-8,75,70,66,70,65,62,92,85,75,29.90,29.79,1,0,12,0.00
2013-9-9,93,78,65,75,70,63,98,78,51,29.82,29.63,1,0,11,0.00
2013-9-10,94,82,72,70,65,61,75,57,34,29.81,29.69,7,1,22,0.00
2013-9-11,83,75,68,70,66,64,88,72,55,29.92,29.80,3,0,14,0.00
2013-9-12,77,67,56,65,55,47,96,69,35,29.98,29.85,3,0,17,0.00
2013-9-13,69,56,44,49,41,34,90,63,28,30.09,29.98,1,0,11,0.00
2013-9-14,71,55,38,51,43,36,97,68,40,30.06,29.87,2,0,13,0.00
2013-9-15,60,55,53,57,52,45,98,91,58,30.08,29.85,0,0,5,0.77
2013-9-16,68,56,45,54,47,42,98,75,46,30.26,30.09,1,0,10,0.00
2013-9-17,70,56,41,56,50,40,97,81,57,30.21,29.96,1,0,9,0.00
2013-9-18,74,66,56,68,62,54,98,87,72,29.96,29.76,1,0,9,0.37
2013-9-19,90,75,68,73,68,62,98,82,48,29.77,29.57,4,0,26,0.18
2013-9-20,69,65,55,66,60,51,97,84,60,29.72,29.60,5,2,21,0.06
2013-9-21,65,55,45,53,48,43,97,80,53,29.83,29.71,2,0,12,0.01
2013-9-22,69,53,40,52,45,39,98,77,45,29.95,29.84,1,0,7,0.00
2013-9-23,69,55,41,52,47,39,97,76,51,29.99,29.89,1,0,11,0.00
2013-9-24,72,57,43,53,48,42,97,74,45,29.92,29.80,2,0,13,0.00
2013-9-25,74,58,46,59,49,45,98,76,45,29.86,29.79,1,0,10,0.00
2013-9-26,76,59,43,60,50,42,98,75,38,29.94,29.85,1,0,12,0.01
2013-9-27,80,63,46,58,51,45,98,71,39,30.02,29.90,1,0,11,0.00
2013-9-28,80,52,52,66,22,-100,96,57,50,29.91,29.70,5,1,22,0.16
2013-9-29,72,57,47,56,48,40,98,77,34,29.95,29.84,1,0,6,0.01
2013-9-30,74,58,40,53,45,39,98,68,35,29.88,29.70,1,0,12,0.00
2013-10-1,81,67,57,63,59,50,96,76,50,29.83,29.71,6,1,20,0.00
2013-10-2,78,63,46,60,48,39,98,65,26,29.97,29.83,1,0,9,0.00
2013-10-3,75,66,56,69,63,45,98,89,63,29.83,29.68,1,0,6,0.33
2013-10-4,70,67,62,69,65,60,98,96,86,29.86,29.73,3,0,16,0.66
2013-10-5,74,67,59,72,65,46,99,93,62,29.78,29.62,4,0,19,0.02
2013-10-6,59,50,44,46,42,38,93,75,53,29.65,29.57,4,1,16,0.01
2013-10-7,68,53,43,48,45,41,95,77,45,29.96,29.63,4,1,16,0.00
2013-10-8,75,57,39,54,45,38,98,68,35,30.04,29.96,1,0,13,0.00
2013-10-9,73,58,45,54,46,38,95,66,29,30.09,29.99,1,0,7,0.00
2013-10-10,74,57,41,55,48,40,98,76,43,30.04,29.90,1,0,6,0.00
2013-10-11,75,60,48,60,53,47,97,79,52,29.92,29.77,3,0,16,0.00
2013-10-12,69,61,46,60,52,40,94,72,41,30.04,29.76,5,1,19,0.04
2013-10-13,65,48,35,47,38,33,96,72,34,30.29,30.05,3,0,14,0.00
2013-10-14,62,47,32,47,39,30,97,76,48,30.30,29.98,3,1,14,0.00
2013-10-15,63,54,48,62,49,42,98,84,66,29.98,29.60,7,1,21,0.29
2013-10-16,52,49,47,48,46,42,96,88,80,29.83,29.67,6,2,20,0.03
2013-10-17,54,46,37,47,43,35,97,90,62,29.81,29.70,3,1,17,0.13
2013-10-18,47,42,34,43,37,32,96,85,69,29.85,29.70,6,1,18,0.01
2013-10-19,51,42,34,39,36,32,93,82,50,29.81,29.63,8,1,22,0.00
2013-10-20,54,43,31,46,39,29,96,87,69,29.75,29.60,4,0,11,0.02
2013-10-21,47,40,30,43,30,23,86,70,51,29.86,29.66,6,2,20,0.00
2013-10-22,42,32,23,30,26,20,91,77,53,29.89,29.81,1,0,7,0.00
2013-10-23,42,35,27,30,26,24,91,73,53,29.92,29.84,4,1,17,0.01
2013-10-24,42,36,29,29,25,22,82,66,51,30.21,29.92,3,1,14,0.00
2013-10-25,51,39,25,30,25,21,87,61,39,30.28,29.87,7,1,23,0.00
2013-10-26,52,44,32,37,29,26,82,57,42,29.97,29.71,5,2,18,0.00
2013-10-27,54,39,24,33,28,22,93,68,38,29.97,29.82,6,1,18,0.00
2013-10-28,46,40,31,37,32,27,86,75,65,30.28,29.93,2,0,15,0.00
2013-10-29,56,44,36,41,36,29,86,75,53,30.27,30.01,2,0,10,0.00
2013-10-30,58,52,44,57,50,40,98,95,83,30.00,29.61,11,1,21,0.15
2013-10-31,62,56,43,61,55,40,98,97,87,29.61,29.14,6,2,20,0.73
2013-11-1,47,44,39,44,40,36,93,88,82,29.64,29.26,6,2,20,0.02
2013-11-2,48,40,33,39,36,30,95,85,61,30.05,29.64,1,0,9,0.01
2013-11-3,51,38,26,41,32,24,97,79,51,30.20,30.05,5,1,13,0.00
2013-11-4,56,49,41,45,40,35,80,69,56,30.10,29.92,10,4,23,0.00
2013-11-5,54,51,47,52,48,43,97,89,77,30.12,29.74,10,3,23,0.19
2013-11-6,56,43,31,55,39,24,97,85,63,30.09,29.60,5,2,21,0.33
2013-11-7,40,33,26,32,28,22,87,80,69,30.15,30.08,5,1,16,0.00
2013-11-8,50,38,23,35,29,20,93,73,54,30.22,29.70,9,3,21,0.00
2013-11-9,54,47,36,41,35,24,76,64,50,30.02,29.67,10,6,28,0.00
2013-11-10,48,40,32,32,29,26,79,66,49,30.23,30.03,5,2,15,0.00
2013-11-11,44,33,18,34,26,13,93,78,65,30.48,29.95,4,1,15,0.13
2013-11-12,30,22,16,19,14,11,82,72,55,30.64,30.48,6,1,20,0.00
2013-11-13,40,29,16,20,16,11,82,60,40,30.49,29.99,6,3,23,0.01
2013-11-14,47,39,32,29,25,18,73,57,47,29.99,29.79,7,2,24,0.00
2013-11-15,54,43,35,35,30,25,83,61,45,29.85,29.77,5,2,13,0.00
2013-11-16,59,50,38,55,47,34,97,91,79,29.77,29.38,12,7,24,0.08
2013-11-17,66,52,40,62,49,33,98,89,76,29.61,29.00,11,5,30,0.76
2013-11-18,40,35,25,33,26,20,82,70,54,30.17,29.62,9,5,28,0.00
2013-11-19,41,29,18,28,22,15,91,76,51,30.27,30.14,3,1,9,0.00
2013-11-20,41,35,31,36,30,27,96,80,62,30.14,29.97,9,4,19,0.10
2013-11-21,44,40,37,42,38,36,97,93,86,30.13,29.98,3,0,7,0.01
2013-11-22,39,32,23,36,26,15,92,77,55,30.39,30.13,5,2,13,0.07
2013-11-23,22,18,11,15,7,2,75,62,45,30.65,30.35,9,4,19,0.00
2013-11-24,26,17,6,9,4,0,80,59,35,30.64,30.22,5,2,15,0.00
2013-11-25,30,26,21,26,20,9,92,78,56,30.21,29.96,6,4,21,0.00
2013-11-26,31,26,11,26,18,2,84,72,55,30.13,29.93,6,2,14,0.01
2013-11-27,25,16,7,12,7,0,74,66,53,30.20,30.12,4,1,12,0.00
2013-11-28,28,22,13,16,13,8,82,67,57,30.42,30.06,4,1,12,0.00
2013-11-29,32,21,4,22,13,0,87,72,55,30.55,30.25,5,1,12,0.00
2013-11-30,47,34,26,32,26,20,89,73,57,30.25,29.92,5,2,14,0.00
2013-12-1,41,32,26,29,26,22,92,79,59,30.05,29.88,1,0,9,0.00
2013-12-2,41,32,21,34,27,18,93,82,63,29.87,29.61,4,1,14,0.03
2013-12-3,41,38,35,40,38,33,98,97,94,29.61,29.53,4,1,13,0.02
2013-12-4,51,44,32,50,43,31,99,98,93,29.61,29.36,10,2,27,0.01
2013-12-5,32,22,16,31,14,8,93,73,62,30.19,29.57,10,6,29,0.00
2013-12-6,18,12,8,8,4,0,75,68,57,30.49,30.18,3,2,11,0.00
2013-12-7,16,8,3,3,0,-2,79,68,48,30.63,30.49,3,1,10,0.00
2013-12-8,22,17,8,20,12,2,91,79,63,30.53,29.86,2,0,9,0.00
2013-12-9,22,10,-6,19,4,-13,91,75,59,30.15,29.84,11,4,26,0.00
2013-12-10,18,8,-8,10,0,-14,80,69,58,30.19,29.88,10,4,29,0.00
2013-12-11,15,8,-6,11,0,-14,85,69,47,30.49,30.17,6,2,15,0.00
2013-12-12,16,6,-6,6,-2,-14,80,69,61,30.46,30.12,7,2,21,0.00
2013-12-13,28,20,7,21,14,3,87,78,62,30.12,30.01,2,1,14,0.01
2013-12-14,27,23,16,24,19,13,89,85,82,30.03,29.86,5,2,15,0.00
2013-12-15,20,12,8,15,3,-4,80,68,56,30.06,29.85,8,3,23,0.00
2013-12-16,15,9,2,11,1,-8,87,71,53,30.09,29.95,3,0,11,0.00
2013-12-17,34,24,15,25,18,10,91,78,55,30.00,29.83,8,4,23,0.00
2013-12-18,33,23,12,25,14,7,83,69,50,30.04,29.68,10,3,19,0.00
2013-12-19,34,29,19,31,25,16,94,85,74,29.83,29.69,2,0,15,0.01
2013-12-20,32,25,24,31,23,22,94,93,91,29.75,29.68,3,0,13,0.00
2013-12-21,28,26,24,27,24,22,96,95,93,29.79,29.56,3,0,12,0.00
2013-12-22,28,25,23,27,24,22,96,94,93,30.03,29.55,4,1,11,0.00
2013-12-23,23,6,-8,22,1,-14,93,80,72,30.41,30.03,7,2,18,0.00
2013-12-24,14,-1,-14,10,-7,-20,84,74,69,30.52,30.22,4,1,9,0.00
2013-12-25,24,20,14,20,16,10,90,85,80,30.22,30.00,8,2,16,0.00
2013-12-26,29,20,10,23,16,5,88,81,73,30.16,30.03,6,1,20,0.00
2013-12-27,36,25,7,29,20,4,92,82,73,30.18,29.95,5,2,15,0.00
2013-12-28,42,36,24,32,29,20,90,75,65,29.96,29.65,5,2,14,0.05
2013-12-29,39,22,-1,31,15,-10,88,75,66,30.17,29.62,9,4,17,0.00
2013-12-30,3,-2,-13,-4,-12,-21,77,65,50,30.28,30.14,2,0,6,0.00
2013-12-31,7,2,-9,2,-4,-15,81,78,72,30.28,30.12,2,0,10,0.00
2014-1-1,10,6,2,6,0,-5,80,76,68,30.25,30.18,4,2,12,0.00
2014-1-2,10,5,-9,2,-2,-15,78,72,64,30.39,30.15,5,3,15,0.00